Location: D?uga
(50.2667°N, 19.7833°E)
Time: 01:36:28
(UTC+00:00)

COBE Rocket - Pass Details

Date: 23 May 2024
Orbit: 678 x 776 km, 97.1° (Epoch: 18 June)

Event Time Altitude Azimuth Distance (km) Brightness Sun altitude
Rises 00:37:42 0° 12° (NNE) 3,124 8.7 -14.3°
Reaches altitude 10° 00:39:57 10° 12° (NNE) 2,215 7.6 -14.1°
Maximum altitude 00:44:50 85° 284° (WNW) 744 3.9 -13.7°
Enters shadow 00:48:27 19° 197° (SSW) 1,721 5.2 -13.4°
